User: anonymous   Login
Location: Unspecified
(0.0000°N, 0.0000°E)
Time: 22:33:35
(UTC+00:00)
Language:

Kosmos-1745 - Orbit

View from above orbital plane
View from above orbital plane
View from above satellite
View from above satellite

Ground track
Ground track

The orbit data is extracted from the following two-line orbital elements,

1 16727U 86037A   18202.81488265 +.00000018 +00000-0 +33357-5 0  9997
2 16727 082.9575 077.0231 0030702 333.8148 072.0577 13.74186994612585
Epoch (UTC): 21 July 2018 19:33:25
Eccentricity: 0.0030702
inclination: 82.9575°
perigee height: 962 km
apogee height: 1007 km
right ascension of ascending node: 77.0231°
argument of perigee: 333.8148°
revolutions per day: 13.74186994
mean anomaly at epoch: 72.0577°
orbit number at epoch: 61258

The dashed part of the orbit path shows where the satellite is in the earth's shadow,  

DLR